Location: Cold Norton
(51.6667°N, 0.6667°E)
Time: 17:05:15
(UTC+00:00)

SKYMED 2 - Pass Details

Date: 18 November 2025
Orbit: 621 x 623 km, 97.9° (Epoch: 10 December)

Event Time Altitude Azimuth Distance (km) Brightness Sun altitude
Exits shadow 18:03:30 18° 23° (NNE) 1,535 5.3 -18.3°
Maximum altitude 18:06:39 64° 101° (ESE) 694 3.5 -18.8°
Drops below altitude 10° 18:10:57 10° 184° (S) 1,988 6.3 -19.4°
Sets 18:13:09 0° 187° (S) 2,889 7.2 -19.8°
